SCP
0 0 0 0 0 0 0 0 0 0 0 0 -0 -0 -0 -0 -0 -0 -0 -0 -0 -0 -0 -0 -0 -0 -0 -0 -0 -0 -0 -0 -0 -0 -0 -0 -0 -0 -0 -0 0 0 0
0 0 0 0 0 0 0 0 0 0 0 0 0 0 -0 -0 -0 -0 -0 -0 -0 -0 -0 -0 -0 -0 -0 -0 -0 -0 -0 -0 -0 -0 -0 0 0 -0 -0 -0 0 0 0
0 0 0 0 0 0 0 0 0 0 0 0 0 0 0 -0 -0 -0 -0 -0 -0 -0 -0 -0 -0 -0 -0 -0 -0 -0 -0 -0 -0 -0 0 0 0 0 0 0 0 0 0
0 0 0 0 0 1 0 0 0 0 0 0 0 0 0 0 0 -0 -0 -0 -0 -0 -0 -0 -0 -0 -0 -0 -0 -0 -0 -0 -0 0 0 0 0 0 0 0 0 0 0
0 0 0 0 0 1 1 0 0 0 0 0 0 0 0 0 0 0 -0 -0 -0 -0 -0 -0 -0 -0 -0 -0 -0 -0 -0 0 0 0 0 0 0 0 0 0 0 0 0
0 0 0 0 0 1 0 0 0 0 0 0 0 0 0 0 0 0 0 0 0 -0 -0 -0 -0 0 0 0 0 0 0 0 0 0 0 0 0 0 0 0 0 0 0
0 0 0 0 0 0 0 0 0 0 0 0 0 0 0 0 0 0 0 0 0 0 0 0 0 0 0 0 0 0 0 0 0 0 0 0 0 0 0 0 0 0 0
0 0 0 0 0 0 0 0 0 0 0 0 0 0 0 0 0 0 0 0 0 0 0 0 0 0 0 0 0 0 0 0 0 0 0 0 0 0 0 0 0 0 0
0 0 1 0 0 0 0 0 0 0 0 0 0 0 0 0 0 0 0 0 0 0 0 0 0 0 0 0 0 0 0 0 0 0 0 0 0 0 -0 0 0 0 0
0 0 0 1 0 1 1 0 0 0 0 0 0 0 0 0 0 0 0 0 0 0 0 0 0 0 0 0 0 0 0 0 0 0 0 0 0 0 0 0 0 0 0
0 0 0 0 0 0 0 0 0 0 0 0 0 0 0 0 0 0 0 0 0 0 0 0 0 0 0 0 0 0 0 0 0 0 0 0 0 0 0 0 0 0 0
0 0 0 0 0 0 0 0 0 0 0 0 0 0 0 0 0 0 0 0 0 0 0 0 0 0 0 0 0 0 0 0 0 0 0 0 0 -0 0 0 0 0 0
0 0 0 0 0 0 0 0 0 0 0 0 0 0 0 0 0 0 0 0 0 0 0 0 0 0 0 0 0 0 0 0 0 0 0 0 0 -0 0 0 0 0 0
0 0 0 0 0 0 0 0 0 0 0 0 0 0 0 0 0 0 0 0 0 0 0 0 0 0 0 0 0 0 0 0 0 0 0 0 0 0 0 0 0 0 -0
0 0 0 0 0 0 0 0 0 0 0 0 0 0 0 0 0 0 0 0 0 0 0 0 0 0 0 0 0 0 0 0 0 0 0 0 0 0 0 0 0 0 -0
0 0 0 0 0 0 0 0 0 0 0 0 0 0 0 0 0 0 0 0 0 0 0 0 0 0 0 0 0 0 0 0 0 0 0 0 0 0 0 0 0 0 -0
0 0 0 0 0 0 0 0 0 0 0 0 0 0 0 0 0 0 0 0 0 0 0 0 0 0 0 0 0 0 0 0 0 0 0 0 0 0 0 0 0 0 0
0 0 0 0 0 0 0 0 0 0 0 0 0 0 0 0 0 0 0 0 0 0 0 0 0 0 0 0 0 0 0 0 0 0 0 0 0 0 0 0 0 0 0
0 0 0 0 0 0 0 0 0 0 0 0 0 0 0 0 0 0 0 0 0 0 0 0 0 0 0 0 0 0 0 0 0 0 0 0 0 0 0 0 0 -0 0
0 0 0 0 0 0 0 0 0 0 0 0 0 0 0 0 0 0 0 0 0 0 0 0 0 0 0 0 0 0 0 0 0 0 0 0 0 0 0 0 0 0 0
0 0 0 0 0 0 0 0 0 0 0 0 0 0 0 0 0 0 0 0 0 0 0 0 0 0 0 0 0 0 0 0 0 0 0 0 0 0 0 0 0 0 0
0 0 0 0 0 0 0 0 0 0 0 0 0 0 0 0 0 0 0 0 0 0 0 0 0 0 0 0 0 0 0 0 0 0 0 0 0 0 0 0 0 0 0
0 0 0 0 0 0 0 0 0 0 0 0 0 0 0 0 0 0 0 0 0 0 0 0 0 0 0 0 0 0 0 0 0 0 0 0 0 0 0 0 0 0 0
0 0 0 0 0 0 0 0 0 0 0 0 0 0 0 0 0 0 0 0 0 0 0 0 0 0 0 0 0 0 0 0 0 0 0 0 0 0 0 0 0 0 0
0 0 0 0 0 0 0 0 0 0 0 0 0 0 0 0 0 0 0 0 0 0 0 0 0 0 0 0 0 0 0 0 0 0 0 0 0 0 0 0 0 0 0
0 0 0 0 0 0 0 0 0 0 0 0 0 0 0 0 0 0 0 0 0 0 0 0 0 0 0 0 0 0 0 0 0 0 0 0 0 0 0 0 0 0 0
Wind_Speed_500mb
28 35 31 31 32 36 32 28 29 30 31 31 30 27 24 20 17 15 11 12 12 15 15 15 14 12 12 12 11 9 10 13 16 18 19 22 22 22 20 21 20 20 18
31 36 32 30 29 32 32 29 28 30 30 31 30 27 24 22 19 15 13 13 14 14 15 14 13 13 12 11 9 5 6 10 12 13 14 19 22 20 19 22 23 19 16
21 34 32 30 30 30 30 28 28 29 29 28 25 25 23 21 19 16 15 14 15 17 18 13 12 11 10 7 5 4 5 7 8 9 11 14 18 14 19 22 23 22 21
16 27 30 28 27 27 28 28 29 30 28 26 25 25 25 23 21 19 18 16 17 18 17 18 18 14 7 5 2 2 5 7 8 8 8 8 9 10 13 20 22 24 25
18 28 28 28 28 28 29 27 29 28 27 25 25 26 24 24 23 23 22 21 23 24 23 19 13 8 5 1 2 5 7 8 8 8 7 6 3 7 14 18 20 25 27
15 25 24 26 27 27 29 28 27 27 27 26 26 25 24 26 25 26 25 25 18 8 9 8 7 5 2 1 3 5 7 9 9 9 8 8 11 15 17 18 25 29 30
9 18 27 26 29 29 32 32 30 29 29 28 28 27 26 25 28 24 20 17 13 8 7 7 5 3 1 2 5 8 10 12 12 11 10 11 16 20 23 26 29 28 27
8 16 24 27 29 31 34 33 32 30 30 29 27 28 30 25 26 22 20 17 11 7 5 5 4 1 2 5 8 9 10 11 12 13 13 14 17 23 26 25 26 26 24
13 18 24 26 30 32 35 36 34 33 32 29 32 34 30 25 24 22 19 14 10 7 4 1 2 4 6 8 10 12 14 15 16 16 18 18 19 21 22 22 22 23 23
20 23 23 27 31 36 37 36 36 35 33 33 35 32 27 25 24 19 15 13 10 6 4 3 4 7 9 13 15 16 16 15 15 15 15 15 17 18 18 19 21 21 18
18 26 27 28 32 32 38 41 38 36 36 36 34 28 28 25 22 20 15 11 8 5 4 6 8 11 14 15 14 13 13 13 13 13 12 12 13 15 17 18 16 12 15
19 24 26 31 34 31 33 39 41 41 41 38 33 31 30 26 23 18 15 11 8 5 5 9 13 15 14 13 13 12 11 10 10 9 9 9 12 15 15 11 10 14 14
20 19 30 36 29 25 26 34 39 42 43 42 37 34 28 25 22 20 16 13 10 7 7 11 12 11 11 12 13 12 10 8 8 7 7 8 9 9 8 13 17 18 20
27 25 26 29 31 34 45 29 37 40 47 42 40 37 35 24 22 19 17 14 11 8 9 9 8 10 11 11 10 9 8 7 6 7 7 7 3 8 17 19 20 23 18
30 31 29 29 35 35 29 21 29 18 31 40 34 33 29 29 27 21 18 14 11 10 8 6 7 9 10 10 9 7 7 7 6 6 5 5 2 7 16 21 23 17 19
34 34 33 27 32 35 33 30 29 27 32 40 33 27 26 25 26 25 19 15 11 13 11 6 6 9 10 9 7 6 6 5 5 3 1 3 5 7 14 16 18 19 17
43 37 36 32 33 36 37 31 36 39 39 37 35 28 20 24 26 26 26 21 14 14 13 5 6 9 10 9 8 5 4 3 2 2 4 6 7 7 5 9 11 14 10
44 42 35 34 33 36 34 36 36 37 39 38 34 22 28 30 30 35 30 23 16 15 13 6 6 9 10 8 8 5 2 1 1 3 6 8 7 5 5 4 7 7 8
32 42 36 31 31 31 34 37 37 37 36 38 37 31 29 40 40 41 33 25 18 16 9 4 8 11 11 9 8 5 3 3 4 6 7 8 6 5 5 4 7 6 8
18 31 39 36 32 30 29 32 32 32 33 31 40 32 40 49 44 49 31 23 20 13 2 11 14 14 12 10 9 6 5 5 6 7 8 7 4 4 3 3 5 6 10
12 16 24 36 38 38 36 34 30 29 24 24 40 36 43 56 43 36 29 43 27 10 11 18 17 16 14 13 10 6 6 9 10 10 11 8 5 2 2 1 4 8 12
8 9 16 22 27 31 34 30 30 28 22 20 30 38 33 40 41 39 40 30 22 21 21 19 17 17 16 16 13 9 7 11 16 15 15 14 11 8 6 5 5 8 11
21 13 4 13 14 13 18 21 25 28 25 22 24 33 27 37 39 46 40 37 21 24 21 17 18 19 19 20 20 14 6 7 10 19 21 19 16 13 10 8 7 8 12
38 28 17 9 6 11 11 12 17 20 22 21 18 23 31 34 42 46 45 46 33 22 19 17 19 21 21 21 24 27 26 19 10 8 22 25 23 20 14 12 9 9 12
46 38 31 18 11 4 6 12 19 18 17 18 15 15 20 24 30 40 39 36 31 22 21 20 21 24 24 24 26 27 27 31 30 24 14 22 31 26 20 16 10 8 11
51 50 42 32 24 10 1 9 13 18 17 11 11 11 15 18 21 25 36 46 46 43 43 24 26 27 27 28 29 30 31 28 27 32 29 22 25 28 25 21 14 7 8
Wind_Direction_500mb
180 177 179 171 178 181 181 179 179 178 180 181 180 180 179 176 176 172 165 160 157 155 150 151 148 137 128 122 113 96 73 58 51 48 44 45 38 31 27 30 36 44 49
182 179 178 172 176 179 180 185 183 182 183 186 187 185 186 184 184 182 176 170 162 155 144 147 142 139 136 137 129 103 63 45 38 35 36 42 47 27 27 31 29 28 30
177 183 179 175 176 181 181 182 182 184 189 190 188 192 189 186 184 177 173 169 160 152 142 128 130 133 144 155 131 77 34 22 20 22 30 42 61 32 2 10 15 22 19
188 191 191 175 173 177 179 177 181 182 187 187 183 183 184 183 180 174 171 165 153 147 146 142 148 158 163 154 109 11 353 353 4 8 12 32 63 14 2 14 20 18 10
173 203 202 180 174 178 176 178 182 181 186 191 187 184 181 179 173 166 163 156 145 139 145 156 167 155 156 178 329 340 357 5 7 4 0 6 336 321 344 358 356 351 348
190 182 197 189 177 180 176 179 182 182 183 188 186 190 179 174 174 171 173 165 169 177 165 163 151 155 164 354 346 355 0 358 352 348 346 333 313 318 329 334 331 329 329
214 196 193 188 182 181 179 181 184 185 186 185 179 181 174 172 175 176 173 180 192 186 155 154 149 144 121 358 341 341 338 332 327 324 321 314 312 320 327 326 323 327 332
221 204 195 189 190 185 185 184 186 185 183 177 178 175 180 180 181 182 183 187 183 180 169 153 136 125 319 317 320 328 331 325 321 320 316 312 315 318 322 324 326 329 329
208 201 204 207 197 191 189 187 186 182 179 179 186 186 190 184 185 186 190 185 185 174 174 216 303 312 309 313 317 317 312 311 309 308 306 312 317 320 322 326 331 329 331
216 205 213 213 206 196 192 189 187 185 190 189 193 196 192 190 184 187 188 187 184 192 208 255 286 299 303 305 305 304 304 304 307 308 312 316 318 323 328 332 328 332 338
242 237 227 216 219 208 199 193 190 194 199 201 202 196 195 193 189 187 188 197 196 208 247 282 295 302 305 306 306 306 306 310 311 312 318 326 330 331 336 334 344 346 14
256 252 246 242 216 215 214 208 200 201 207 206 207 195 193 190 192 194 193 200 210 223 269 296 304 308 313 318 319 320 318 318 321 325 334 334 339 348 347 14 17 26 44
263 251 254 257 238 216 223 223 221 216 211 208 207 200 189 191 196 198 202 204 216 246 277 297 303 309 317 319 320 321 318 321 325 330 330 335 341 46 48 44 57 68 61
263 257 248 252 243 241 283 279 241 222 214 219 224 212 192 197 206 209 211 211 220 243 278 291 300 311 312 312 313 315 318 324 330 332 324 335 13 93 77 81 76 66 64
261 262 253 241 244 250 245 267 258 254 238 239 250 228 211 193 210 215 214 218 236 258 262 274 294 308 309 310 310 311 318 321 328 329 339 341 186 125 106 93 77 73 63
269 258 256 247 243 258 252 240 244 241 257 243 253 254 247 221 207 211 205 216 243 272 250 237 292 303 304 302 301 306 315 320 325 341 33 80 109 116 112 109 100 83 67
255 256 250 252 244 252 261 250 236 240 250 261 262 260 262 258 236 218 209 207 225 244 242 234 267 292 292 291 291 293 310 323 342 80 119 122 110 113 118 118 117 93 56
258 252 246 239 243 247 248 260 259 252 246 250 259 276 265 256 243 214 211 206 216 236 233 223 274 288 283 278 278 276 276 264 136 137 132 130 122 108 78 86 85 58 29
262 250 249 243 237 248 249 251 257 262 257 254 244 261 275 248 237 210 206 202 203 224 229 241 291 288 280 272 257 245 221 196 172 155 151 144 130 118 103 76 55 34 21
252 244 240 243 239 241 241 245 253 260 261 256 231 252 259 271 237 222 191 220 202 201 289 296 281 274 261 251 227 213 207 205 197 177 174 173 147 131 123 70 30 359 17
266 239 231 234 238 242 243 244 245 255 272 265 230 239 253 255 248 213 196 228 229 239 265 263 265 264 249 224 211 205 212 218 219 208 205 201 210 213 216 290 333 349 11
350 274 241 237 238 243 246 243 244 251 268 267 257 247 250 257 238 214 216 209 207 232 238 247 254 251 244 228 231 228 228 239 234 225 222 226 234 244 249 263 309 348 8
34 28 12 232 224 238 251 247 247 249 257 263 266 254 263 262 230 221 201 194 208 230 236 244 253 251 256 249 241 232 226 230 220 233 228 231 237 243 246 254 279 334 4
36 35 42 90 145 172 203 238 247 261 259 266 277 274 257 257 243 239 210 203 202 232 242 250 255 260 260 260 254 248 249 254 243 235 235 236 236 240 242 248 267 313 353
48 46 45 52 78 125 207 211 219 230 242 252 261 275 271 273 252 238 230 222 220 219 245 258 263 266 266 265 262 262 258 254 251 249 260 241 237 236 237 244 254 298 339
52 53 51 47 51 69 141 241 247 238 234 242 246 269 286 276 268 240 232 219 230 236 247 269 266 271 272 267 265 263 260 257 260 249 245 249 235 232 232 236 239 268 316
Wind_Speed_850mb
28 35 31 31 32 36 32 28 29 30 31 31 30 27 24 20 17 15 11 12 12 15 15 15 14 12 12 12 11 9 10 13 16 18 19 22 22 22 20 21 20 20 18
31 36 32 30 29 32 32 29 28 30 30 31 30 27 24 22 19 15 13 13 14 14 15 14 13 13 12 11 9 5 6 10 12 13 14 19 22 20 19 22 23 19 16
21 34 32 30 30 30 30 28 28 29 29 28 25 25 23 21 19 16 15 14 15 17 18 13 12 11 10 7 5 4 5 7 8 9 11 14 18 14 19 22 23 22 21
16 27 30 28 27 27 28 28 29 30 28 26 25 25 25 23 21 19 18 16 17 18 17 18 18 14 7 5 2 2 5 7 8 8 8 8 9 10 13 20 22 24 25
18 28 28 28 28 28 29 27 29 28 27 25 25 26 24 24 23 23 22 21 23 24 23 19 13 8 5 1 2 5 7 8 8 8 7 6 3 7 14 18 20 25 27
15 25 24 26 27 27 29 28 27 27 27 26 26 25 24 26 25 26 25 25 18 8 9 8 7 5 2 1 3 5 7 9 9 9 8 8 11 15 17 18 25 29 30
9 18 27 26 29 29 32 32 30 29 29 28 28 27 26 25 28 24 20 17 13 8 7 7 5 3 1 2 5 8 10 12 12 11 10 11 16 20 23 26 29 28 27
8 16 24 27 29 31 34 33 32 30 30 29 27 28 30 25 26 22 20 17 11 7 5 5 4 1 2 5 8 9 10 11 12 13 13 14 17 23 26 25 26 26 24
13 18 24 26 30 32 35 36 34 33 32 29 32 34 30 25 24 22 19 14 10 7 4 1 2 4 6 8 10 12 14 15 16 16 18 18 19 21 22 22 22 23 23
20 23 23 27 31 36 37 36 36 35 33 33 35 32 27 25 24 19 15 13 10 6 4 3 4 7 9 13 15 16 16 15 15 15 15 15 17 18 18 19 21 21 18
18 26 27 28 32 32 38 41 38 36 36 36 34 28 28 25 22 20 15 11 8 5 4 6 8 11 14 15 14 13 13 13 13 13 12 12 13 15 17 18 16 12 15
19 24 26 31 34 31 33 39 41 41 41 38 33 31 30 26 23 18 15 11 8 5 5 9 13 15 14 13 13 12 11 10 10 9 9 9 12 15 15 11 10 14 14
20 19 30 36 29 25 26 34 39 42 43 42 37 34 28 25 22 20 16 13 10 7 7 11 12 11 11 12 13 12 10 8 8 7 7 8 9 9 8 13 17 18 20
27 25 26 29 31 34 45 29 37 40 47 42 40 37 35 24 22 19 17 14 11 8 9 9 8 10 11 11 10 9 8 7 6 7 7 7 3 8 17 19 20 23 18
30 31 29 29 35 35 29 21 29 18 31 40 34 33 29 29 27 21 18 14 11 10 8 6 7 9 10 10 9 7 7 7 6 6 5 5 2 7 16 21 23 17 19
34 34 33 27 32 35 33 30 29 27 32 40 33 27 26 25 26 25 19 15 11 13 11 6 6 9 10 9 7 6 6 5 5 3 1 3 5 7 14 16 18 19 17
43 37 36 32 33 36 37 31 36 39 39 37 35 28 20 24 26 26 26 21 14 14 13 5 6 9 10 9 8 5 4 3 2 2 4 6 7 7 5 9 11 14 10
44 42 35 34 33 36 34 36 36 37 39 38 34 22 28 30 30 35 30 23 16 15 13 6 6 9 10 8 8 5 2 1 1 3 6 8 7 5 5 4 7 7 8
32 42 36 31 31 31 34 37 37 37 36 38 37 31 29 40 40 41 33 25 18 16 9 4 8 11 11 9 8 5 3 3 4 6 7 8 6 5 5 4 7 6 8
18 31 39 36 32 30 29 32 32 32 33 31 40 32 40 49 44 49 31 23 20 13 2 11 14 14 12 10 9 6 5 5 6 7 8 7 4 4 3 3 5 6 10
12 16 24 36 38 38 36 34 30 29 24 24 40 36 43 56 43 36 29 43 27 10 11 18 17 16 14 13 10 6 6 9 10 10 11 8 5 2 2 1 4 8 12
8 9 16 22 27 31 34 30 30 28 22 20 30 38 33 40 41 39 40 30 22 21 21 19 17 17 16 16 13 9 7 11 16 15 15 14 11 8 6 5 5 8 11
21 13 4 13 14 13 18 21 25 28 25 22 24 33 27 37 39 46 40 37 21 24 21 17 18 19 19 20 20 14 6 7 10 19 21 19 16 13 10 8 7 8 12
38 28 17 9 6 11 11 12 17 20 22 21 18 23 31 34 42 46 45 46 33 22 19 17 19 21 21 21 24 27 26 19 10 8 22 25 23 20 14 12 9 9 12
46 38 31 18 11 4 6 12 19 18 17 18 15 15 20 24 30 40 39 36 31 22 21 20 21 24 24 24 26 27 27 31 30 24 14 22 31 26 20 16 10 8 11
51 50 42 32 24 10 1 9 13 18 17 11 11 11 15 18 21 25 36 46 46 43 43 24 26 27 27 28 29 30 31 28 27 32 29 22 25 28 25 21 14 7 8
Wind_Direction_850mb
180 177 179 171 178 181 181 179 179 178 180 181 180 180 179 176 176 172 165 160 157 155 150 151 148 137 128 122 113 96 73 58 51 48 44 45 38 31 27 30 36 44 49
182 179 178 172 176 179 180 185 183 182 183 186 187 185 186 184 184 182 176 170 162 155 144 147 142 139 136 137 129 103 63 45 38 35 36 42 47 27 27 31 29 28 30
177 183 179 175 176 181 181 182 182 184 189 190 188 192 189 186 184 177 173 169 160 152 142 128 130 133 144 155 131 77 34 22 20 22 30 42 61 32 2 10 15 22 19
188 191 191 175 173 177 179 177 181 182 187 187 183 183 184 183 180 174 171 165 153 147 146 142 148 158 163 154 109 11 353 353 4 8 12 32 63 14 2 14 20 18 10
173 203 202 180 174 178 176 178 182 181 186 191 187 184 181 179 173 166 163 156 145 139 145 156 167 155 156 178 329 340 357 5 7 4 0 6 336 321 344 358 356 351 348
190 182 197 189 177 180 176 179 182 182 183 188 186 190 179 174 174 171 173 165 169 177 165 163 151 155 164 354 346 355 0 358 352 348 346 333 313 318 329 334 331 329 329
214 196 193 188 182 181 179 181 184 185 186 185 179 181 174 172 175 176 173 180 192 186 155 154 149 144 121 358 341 341 338 332 327 324 321 314 312 320 327 326 323 327 332
221 204 195 189 190 185 185 184 186 185 183 177 178 175 180 180 181 182 183 187 183 180 169 153 136 125 319 317 320 328 331 325 321 320 316 312 315 318 322 324 326 329 329
208 201 204 207 197 191 189 187 186 182 179 179 186 186 190 184 185 186 190 185 185 174 174 216 303 312 309 313 317 317 312 311 309 308 306 312 317 320 322 326 331 329 331
216 205 213 213 206 196 192 189 187 185 190 189 193 196 192 190 184 187 188 187 184 192 208 255 286 299 303 305 305 304 304 304 307 308 312 316 318 323 328 332 328 332 338
242 237 227 216 219 208 199 193 190 194 199 201 202 196 195 193 189 187 188 197 196 208 247 282 295 302 305 306 306 306 306 310 311 312 318 326 330 331 336 334 344 346 14
256 252 246 242 216 215 214 208 200 201 207 206 207 195 193 190 192 194 193 200 210 223 269 296 304 308 313 318 319 320 318 318 321 325 334 334 339 348 347 14 17 26 44
263 251 254 257 238 216 223 223 221 216 211 208 207 200 189 191 196 198 202 204 216 246 277 297 303 309 317 319 320 321 318 321 325 330 330 335 341 46 48 44 57 68 61
263 257 248 252 243 241 283 279 241 222 214 219 224 212 192 197 206 209 211 211 220 243 278 291 300 311 312 312 313 315 318 324 330 332 324 335 13 93 77 81 76 66 64
261 262 253 241 244 250 245 267 258 254 238 239 250 228 211 193 210 215 214 218 236 258 262 274 294 308 309 310 310 311 318 321 328 329 339 341 186 125 106 93 77 73 63
269 258 256 247 243 258 252 240 244 241 257 243 253 254 247 221 207 211 205 216 243 272 250 237 292 303 304 302 301 306 315 320 325 341 33 80 109 116 112 109 100 83 67
255 256 250 252 244 252 261 250 236 240 250 261 262 260 262 258 236 218 209 207 225 244 242 234 267 292 292 291 291 293 310 323 342 80 119 122 110 113 118 118 117 93 56
258 252 246 239 243 247 248 260 259 252 246 250 259 276 265 256 243 214 211 206 216 236 233 223 274 288 283 278 278 276 276 264 136 137 132 130 122 108 78 86 85 58 29
262 250 249 243 237 248 249 251 257 262 257 254 244 261 275 248 237 210 206 202 203 224 229 241 291 288 280 272 257 245 221 196 172 155 151 144 130 118 103 76 55 34 21
252 244 240 243 239 241 241 245 253 260 261 256 231 252 259 271 237 222 191 220 202 201 289 296 281 274 261 251 227 213 207 205 197 177 174 173 147 131 123 70 30 359 17
266 239 231 234 238 242 243 244 245 255 272 265 230 239 253 255 248 213 196 228 229 239 265 263 265 264 249 224 211 205 212 218 219 208 205 201 210 213 216 290 333 349 11
350 274 241 237 238 243 246 243 244 251 268 267 257 247 250 257 238 214 216 209 207 232 238 247 254 251 244 228 231 228 228 239 234 225 222 226 234 244 249 263 309 348 8
34 28 12 232 224 238 251 247 247 249 257 263 266 254 263 262 230 221 201 194 208 230 236 244 253 251 256 249 241 232 226 230 220 233 228 231 237 243 246 254 279 334 4
36 35 42 90 145 172 203 238 247 261 259 266 277 274 257 257 243 239 210 203 202 232 242 250 255 260 260 260 254 248 249 254 243 235 235 236 236 240 242 248 267 313 353
48 46 45 52 78 125 207 211 219 230 242 252 261 275 271 273 252 238 230 222 220 219 245 258 263 266 266 265 262 262 258 254 251 249 260 241 237 236 237 244 254 298 339
52 53 51 47 51 69 141 241 247 238 234 242 246 269 286 276 268 240 232 219 230 236 247 269 266 271 272 267 265 263 260 257 260 249 245 249 235 232 232 236 239 268 316